User: anonymous   Login
Location: Unspecified
(0.0000°N, 0.0000°E)
Time: 08:51:16
(UTC+00:00)
Language:

NOSS 2-2 (C) - Orbit

View from above orbital plane
View from above orbital plane
View from above satellite
View from above satellite

Ground track
Ground track

The orbit data is extracted from the following two-line orbital elements,

1 21799U 91076C   17169.95786619 0.00000110  00000-0  35160-4 0    00
2 21799  63.3570  95.4390 0751000  25.0740 334.9260 13.41104170    04
Epoch (UTC): 18 June 2017 22:59:19
Eccentricity: 0.0751000
inclination: 63.3570°
perigee height: 543 km
apogee height: 1667 km
right ascension of ascending node: 95.4390°
argument of perigee: 25.0740°
revolutions per day: 13.41104170
mean anomaly at epoch: 334.9260°
orbit number at epoch: 0

The dashed part of the orbit path shows where the satellite is in the earth's shadow,  

DLR